Location: Caltech
(34.1382°N, 118.1253°W)
Time: 11:33:07
(UTC-07:00)

Cosmos 1937 Rocket - Visible Passes

Search period start: 27 April 2015 00:00
Search period end: 07 May 2015 00:00
Orbit: 747 x 782 km, 74.0° (Epoch: 27 April)

Date Brightness Start Highest point End Pass type
(mag) Time Alt. Az. Time Alt. Az. Time Alt. Az.
29 Apr 6.3 05:32:34 10° SE 05:35:39 17° E 05:39:01 10° ENE visible
02 May 5.6 05:18:43 10° SSE 05:23:00 27° E 05:27:26 10° NE visible
03 May 6.2 04:42:26 10° SE 04:45:02 14° E 04:47:58 10° ENE visible
05 May 4.7 05:05:27 10° S 05:10:22 44° ESE 05:15:23 10° NNE visible
06 May 5.6 04:28:19 10° SSE 04:32:22 24° E 04:36:36 10° NE visible
